This is the latest recevied weather packets stored in our database for station/object UR7D-12. If no packets are shown the sender has not sent any weather packets the latest 1 day(s).
| Time | Temp. | Humidity | Pressure | Rain* | Wind** | Luminosity | Snow |
|---|---|---|---|---|---|---|---|
| 1778025726 | 15° C | 58% | 985.6 hPa | 0 mm | 3.58 m/s, 115° | - | - |
| 1778025426 | 15° C | 58% | 985.6 hPa | 0 mm | 3.13 m/s, 105° | - | - |
| 1778025126 | 14.44° C | 59% | 985.6 hPa | 0 mm | 2.68 m/s, 107° | - | - |
| 1778024825 | 14.44° C | 60% | 985.6 hPa | 0 mm | 2.24 m/s, 134° | - | - |
| 1778024525 | 14.44° C | 59% | 985.7 hPa | 0 mm | 2.24 m/s, 137° | - | - |
| 1778024225 | 14.44° C | 59% | 985.7 hPa | 0 mm | 2.24 m/s, 127° | - | - |
| 1778023925 | 15° C | 58% | 985.8 hPa | 0 mm | 2.24 m/s, 115° | - | - |
| 1778023624 | 15° C | 58% | 985.8 hPa | 0 mm | 2.68 m/s, 105° | - | - |
| 1778023324 | 15° C | 58% | 985.7 hPa | 0 mm | 3.13 m/s, 105° | - | - |
| 1778023024 | 15.56° C | 57% | 985.7 hPa | 0 mm | 3.13 m/s, 105° | - | - |
| 1778022723 | 15.56° C | 57% | 985.9 hPa | 0 mm | 3.13 m/s, 113° | - | - |
| 1778022423 | 15.56° C | 56% | 985.8 hPa | 0 mm | 3.58 m/s, 110° | - | - |
| 1778022123 | 15.56° C | 56% | 985.8 hPa | 0 mm | 3.58 m/s, 119° | - | - |
| 1778021823 | 15.56° C | 56% | 985.9 hPa | 0 mm | 3.58 m/s, 98° | - | - |
| 1778021522 | 16.11° C | 55% | 985.9 hPa | 0 mm | 3.58 m/s, 96° | - | - |
| 1778021222 | 16.11° C | 55% | 986 hPa | 0 mm | 3.58 m/s, 101° | - | - |
| 1778020922 | 16.11° C | 55% | 986 hPa | 0 mm | 3.13 m/s, 112° | - | - |
| 1778020622 | 16.11° C | 55% | 986.1 hPa | 0 mm | 3.13 m/s, 110° | - | - |
| 1778020321 | 16.11° C | 55% | 986.1 hPa | 0 mm | 3.13 m/s, 101° | - | - |
| 1778020021 | 16.11° C | 55% | 986 hPa | 0 mm | 2.68 m/s, 120° | - | - |
| 1778019721 | 16.11° C | 56% | 986.1 hPa | 0 mm | 2.68 m/s, 125° | - | - |
| 1778019420 | 16.11° C | 56% | 986.1 hPa | 0 mm | 2.68 m/s, 98° | - | - |
| 1778019120 | 16.11° C | 56% | 986.2 hPa | 0 mm | 3.13 m/s, 105° | - | - |
| 1778018820 | 16.11° C | 55% | 986.1 hPa | 0 mm | 2.68 m/s, 110° | - | - |
| 1778018520 | 16.11° C | 55% | 986 hPa | 0 mm | 2.68 m/s, 93° | - | - |
* Rain latest hour (hover to see other rain measurements)
** Current wind speed in m/s (hover to see current wind gust speed)